| time (UTC) | temp C | wind direction | speed KPH | gust KPH | rain 1hr cm | rain 24hr cm | rain mn cm | humidity % | barometer mb |
| 20260505061558 | 10 | 181 | 0.0 | 3.2 | 0.00 | 0.00 | 0.00 | 63 | 1014.7 |
| 20260505060058 | 10 | 233 | 0.0 | 4.8 | 0.00 | 0.00 | 0.00 | 64 | 1014.7 |
| 20260505054558 | 10 | 206 | 0.0 | 3.2 | 0.00 | 0.00 | 0.00 | 64 | 1014.6 |
| 20260505053059 | 10 | 174 | 0.0 | 4.8 | 0.00 | 0.00 | 0.00 | 65 | 1014.6 |
| 20260505051606 | 10 | 207 | 0.0 | 4.8 | 0.00 | 0.00 | 0.00 | 66 | 1014.4 |
| 20260505050105 | 10 | 220 | 0.0 | 4.8 | 0.00 | 0.00 | 0.00 | 66 | 1014.3 |
| 20260505041603 | 10 | 237 | 0.0 | 3.2 | 0.00 | 0.00 | 0.00 | 67 | 1014.4 |
| 20260505040100 | 10 | 212 | 0.0 | 3.2 | 0.00 | 0.00 | 0.00 | 67 | 1014.4 |
| 20260505034558 | 10 | 198 | 1.6 | 4.8 | 0.00 | 0.00 | 0.00 | 66 | 1014.4 |
| 20260505033058 | 11 | 35 | 0.0 | 3.2 | 0.00 | 0.00 | 0.00 | 64 | 1014.3 |
| 20260505031601 | 11 | 219 | 0.0 | 6.4 | 0.00 | 0.00 | 0.00 | 63 | 1014.2 |
| 20260505030058 | 11 | 28 | 0.0 | 6.4 | 0.00 | 0.00 | 0.00 | 62 | 1014.3 |
| 20260505024607 | 11 | 298 | 0.0 | 8.0 | 0.00 | 0.00 | 0.00 | 63 | 1014.5 |
| 20260505023104 | 11 | 276 | 0.0 | 8.0 | 0.00 | 0.00 | 0.00 | 64 | 1014.7 |
| 20260505021557 | 11 | 219 | 1.6 | 3.2 | 0.00 | 0.00 | 0.00 | 63 | 1014.6 |
| 20260505020059 | 11 | 141 | 3.2 | 6.4 | 0.00 | 0.00 | 0.00 | 63 | 1014.7 |
| 20260505014558 | 11 | 204 | 0.0 | 6.4 | 0.00 | 0.00 | 0.00 | 63 | 1014.7 |
| 20260505013126 | 11 | 221 | 0.0 | 1.6 | 0.00 | 0.00 | 0.00 | 62 | 1014.8 |
| 20260505011626 | 11 | 249 | 0.0 | 8.0 | 0.00 | 0.00 | 0.00 | 62 | 1014.8 |
| 20260505010113 | 11 | 89 | 0.0 | 4.8 | 0.00 | 0.00 | 0.00 | 62 | 1015.0 |
| 20260505004558 | 12 | 62 | 1.6 | 9.7 | 0.00 | 0.00 | 0.00 | 61 | 1015.1 |
| 20260505003104 | 12 | 214 | 3.2 | 9.7 | 0.00 | 0.00 | 0.00 | 60 | 1015.1 |
| 20260505001559 | 12 | 200 | 1.6 | 11.3 | 0.00 | 0.00 | 0.00 | 61 | 1015.2 |
| 20260505000107 | 12 | 255 | 4.8 | 14.5 | 0.00 | 0.00 | 0.00 | 60 | 1015.2 |
| 20260504234557 | 12 | 228 | 0.0 | 6.4 | 0.00 | 0.00 | 0.00 | 59 | 1015.1 |
| 20260504233107 | 12 | 69 | 1.6 | 9.7 | 0.00 | 0.00 | 0.00 | 58 | 1015.1 |
| 20260504231558 | 12 | 306 | 3.2 | 9.7 | 0.00 | 0.00 | 0.00 | 57 | 1015.1 |
| 20260504230106 | 12 | 272 | 0.0 | 6.4 | 0.00 | 0.00 | 0.00 | 59 | 1015.0 |
| 20260504224600 | 13 | 352 | 1.6 | 11.3 | 0.00 | 0.00 | 0.00 | 59 | 1014.9 |
| 20260504223104 | 13 | 224 | 0.0 | 8.0 | 0.00 | 0.00 | 0.00 | 59 | 1014.9 |
| 20260504221604 | 13 | 4 | 0.0 | 8.0 | 0.00 | 0.00 | 0.00 | 60 | 1015.0 |
| 20260504220100 | 13 | 304 | 0.0 | 11.3 | 0.00 | 0.00 | 0.00 | 61 | 1015.0 |
| 20260504214615 | 13 | 203 | 1.6 | 6.4 | 0.00 | 0.00 | 0.00 | 61 | 1015.1 |
| 20260504213125 | 12 | 168 | 0.0 | 4.8 | 0.00 | 0.00 | 0.00 | 61 | 1015.1 |
| 20260504211600 | 12 | 200 | 0.0 | 1.6 | 0.00 | 0.00 | 0.00 | 60 | 1015.2 |
| 20260504211503 | 12 | 200 | 0.0 | 1.6 | 0.00 | 0.00 | 0.00 | 60 | 1015.1 |
| 20260504210002 | 13 | 240 | 0.0 | 1.6 | 0.00 | 0.00 | 0.00 | 59 | 1015.1 |
| 20260504204606 | 13 | 214 | 0.0 | 4.8 | 0.00 | 0.00 | 0.00 | 57 | 1014.9 |
| 20260504203106 | 13 | 217 | 0.0 | 4.8 | 0.00 | 0.00 | 0.00 | 57 | 1014.8 |
| 20260504201625 | 13 | 239 | 0.0 | 4.8 | 0.00 | 0.00 | 0.00 | 57 | 1014.7 |
| 20260504201501 | 13 | 197 | 0.0 | 3.2 | 0.00 | 0.00 | 0.00 | 58 | 1014.7 |
| 20260504200002 | 13 | 226 | 1.6 | 4.8 | 0.00 | 0.00 | 0.00 | 59 | 1014.5 |
| 20260504194614 | 13 | 134 | 1.6 | 6.4 | 0.00 | 0.00 | 0.00 | 60 | 1014.3 |
| 20260504193118 | 13 | 321 | 0.0 | 6.4 | 0.00 | 0.00 | 0.00 | 60 | 1014.1 |
| 20260504193001 | 13 | 44 | 0.0 | 6.4 | 0.00 | 0.00 | 0.00 | 60 | 1014.0 |
| 20260504191501 | 14 | 222 | 0.0 | 3.2 | 0.00 | 0.00 | 0.00 | 59 | 1013.9 |
| 20260504190116 | 14 | 293 | 0.0 | 4.8 | 0.00 | 0.00 | 0.00 | 58 | 1013.7 |
| 20260504190003 | 14 | 288 | 1.6 | 4.8 | 0.00 | 0.00 | 0.00 | 58 | 1013.7 |
| 20260504184638 | 15 | 134 | 0.0 | 6.4 | 0.00 | 0.00 | 0.00 | 57 | 1013.6 |
| 20260504183100 | 15 | 118 | 0.0 | 11.3 | 0.00 | 0.00 | 0.00 | 56 | 1013.6 |
| 20260504181600 | 15 | 340 | 1.6 | 14.5 | 0.00 | 0.00 | 0.00 | 56 | 1013.5 |
| 20260504181502 | 15 | 115 | 1.6 | 20.9 | 0.00 | 0.00 | 0.00 | 56 | 1013.6 |
| 20260504180001 | 16 | 337 | 4.8 | 12.9 | 0.00 | 0.00 | 0.00 | 54 | 1013.4 |
| 20260504174601 | 16 | 65 | 9.7 | 19.3 | 0.00 | 0.00 | 0.00 | 52 | 1013.4 |
| 20260504173059 | 16 | 7 | 4.8 | 19.3 | 0.00 | 0.00 | 0.00 | 52 | 1013.2 |
| 20260504173002 | 16 | 344 | 4.8 | 19.3 | 0.00 | 0.00 | 0.00 | 52 | 1013.2 |
| 20260504171503 | 17 | 330 | 11.3 | 17.7 | 0.00 | 0.00 | 0.00 | 48 | 1013.1 |
| 20260504140112 | 18 | 217 | 6.4 | 29.0 | 0.00 | 0.00 | 0.00 | 40 | 1012.8 |
| 20260504120120 | 17 | 213 | 4.8 | 22.5 | 0.00 | 0.00 | 0.00 | 48 | 1013.7 |
| 20260504110107 | 16 | 207 | 8.0 | 19.3 | 0.00 | 0.00 | 0.00 | 52 | 1014.2 |
| 20260504100105 | 15 | 217 | 8.0 | 20.9 | 0.00 | 0.00 | 0.00 | 61 | 1014.5 |
| 20260504081559 | 12 | 242 | 1.6 | 6.4 | 0.00 | 0.00 | 0.00 | 73 | 1014.5 |